Regional Weather Roundup
Issued by NWS

Home | Current Version | Previous Version | Text Only | Print | Product List | Glossary Off
Versions: 1 2 3 4 5 6 7 8 9 10 11 12 13 14 15 16 17 18 19 20 21 22 23 24 25 26 27 28 29 30 31 32 33 34 35 36 37 38 39 40 41 42 43 44 45 46 47 48 49 50

000
ASUS43 KMPX 241001
RWRMN
WEATHER ROUNDUP FOR MINNESOTA
NATIONAL WEATHER SERVICE TWIN CITIES/CHANHASSEN MN
500 AM CDT THU APR 24 2014


NOTE: "FAIR" INDICATES FEW OR NO CLOUDS BELOW 12,000 FEET WITH NO
SIGNIFICANT WEATHER AND/OR OBSTRUCTIONS TO VISIBILITY. N/A MEANS
CURRENT SKY AND/OR WEATHER CONDITIONS ARE NOT AVAILABLE.

MNZ060>063-068>070-241100-
   Twin Cities Metro

CITY           SKY/WX    TMP DP  RH WIND       PRES   REMARKS
TWIN CITIES    LGT RAIN  42  41  96 E18       29.83F FOG
ST PAUL        LGT RAIN  42  40  92 E13       29.86F FOG
CRYSTAL        LGT RAIN  43  39  86 SE12      29.82F FOG
BLAINE         LGT RAIN  45  43  93 E10G18    29.84F
EDEN PRAIRIE   LGT RAIN  43  40  89 E14       29.81F FOG
LAKEVILLE      RAIN      39  37  93 E10       29.82F
SOUTH ST PAUL  LGT RAIN  44  42  95 SE7       29.85F
LAKE ELMO      LGT RAIN  41  39  93 E12       29.86F
$$
MNZ001>005-007-008-013>017-022>024-027-028-241100-
   Northwest Minnesota

CITY           SKY/WX    TMP DP  RH WIND       PRES   REMARKS
BEMIDJI        RAIN      35  34  96 E10       29.84F WCI  27
HALLOCK        CLOUDY    39  36  87 SE18G24   29.80S
ROSEAU         CLOUDY    37  34  87 SE12      29.86S
WARROAD        MIX PCPN  37  34  87 E10       29.88F
THIEF RVR FALL CLOUDY    37  34  87 E13       29.82F
CROOKSTON      CLOUDY    37  37 100 SE12      29.80F
FOSSTON        CLOUDY    36  36 100 SE13      29.81S
DETROIT LAKES  CLOUDY    37  37 100 SE10      29.78F
MOORHEAD       CLOUDY    43  43 100 SE7       29.78S
PARK RAPIDS    CLOUDY    38  36  92 SE8       29.81F
$$
MNZ006-009>011-018-025>026-241100-
   North Central Minnesota

CITY           SKY/WX    TMP DP  RH WIND       PRES   REMARKS
BAUDETTE       CLOUDY    37  35  92 SE10      29.90
FLAG ISLAND    DRIZZLE   37  36  93 E8        29.89F
INTL FALLS     CLOUDY    37  35  92 SE12      29.93F
WASKISH        CLOUDY    36  36 100 E9        29.88F
LONGVILLE      CLOUDY    37  36  93 E5        29.85F
GRAND RAPIDS   CLOUDY    36  34  93 SE9G17    29.89F
CRANE LAKE     CLOUDY    34  34 100 CALM      29.99F
ORR            CLOUDY    36  34  93 SE8       29.92F
COOK           DRIZZLE   36  34  93 E8        29.94F
$$
MNZ012-019>021-037-241100-
   Northeast Minnesota

CITY           SKY/WX    TMP DP  RH WIND       PRES   REMARKS
DULUTH         DRIZZLE   37  34  89 E18       29.95F FOG
ELY            DRIZZLE   36  34  93 E3        29.99S
HIBBING        CLOUDY    36  33  89 E9        29.92F
EVELETH        DRIZZLE   36  36 100 E5        29.95F
DULUTH HARBOR  CLOUDY    34  34 100 NE9       29.99F FOG     WCI  26
TWO HARBORS    DRIZZLE   37  32  81 E8        29.98S
SILVER BAY     DRIZZLE   36  36 100 E5        30.00F
GRAND MARAIS     N/A     37  29  72 NE3       30.06S
G MARAIS ARPRT FLURRIES  36  27  69 CALM      30.03S
$$
MNZ029>031-032-039>041-046>048-054>057-064-241100-
   West Central Minnesota

CITY           SKY/WX    TMP DP  RH WIND       PRES   REMARKS
FERGUS FALLS   CLOUDY    41  36  81 SE10      29.74F
WHEATON        CLOUDY    43  39  87 E6        29.78S
MORRIS         CLOUDY    43  37  81 SE10      29.74S
ALEXANDRIA     CLOUDY    40  36  86 E10G20    29.78S
ELBOW LAKE     CLOUDY    41  37  85 SE10G20   29.76S
WADENA         CLOUDY    37  36  93 E9        29.79F
GLENWOOD       CLOUDY    39  37  93 E13       29.76F
APPLETON       CLOUDY    43  37  81 SE12      29.74S
BENSON         CLOUDY    43  37  81 SE14      29.74F
ORTONVILLE     CLOUDY    41  36  81 E3        29.75R
MADISON        CLOUDY    45  41  87 SE6       29.73S
WILLMAR        MIX PCPN  43  39  87 E15G21    29.76S
$$
MNZ033>034-036-042>043-049>051-058-059-241100-
   Central Minnesota

CITY           SKY/WX    TMP DP  RH WIND       PRES   REMARKS
ST CLOUD       CLOUDY    43  38  82 E9        29.80F
SAUK CENTRE    CLOUDY    40  37  86 E10       29.78F
PAYNESVILLE    CLOUDY    42  37  83 E13G20    29.77F
AITKIN         CLOUDY    41  36  81 E7        29.85F
PINE RIVER     CLOUDY    37  37 100 E8        29.87F
BRAINERD       CLOUDY    43  36  76 E8G20     29.84
STAPLES        CLOUDY    39  36  87 E7        29.80F
LONG PRAIRIE   CLOUDY    39  36  87 E8        29.79F
LITTLE FALLS   CLOUDY    39  36  87 E8        29.81F
LITCHFIELD     CLOUDY    43  41  93 SE17      29.77F
BUFFALO        CLOUDY    42  38  84 E12G18    29.81F
MAPLE LAKE     CLOUDY    43  40  86 E10G16    29.81F
$$
MNZ037-044-045-052-053-241100-
   East Central Minnesota

CITY           SKY/WX    TMP DP  RH WIND       PRES   REMARKS
PRINCETON      CLOUDY    43  39  87 E9G16     29.84F
MORA           CLOUDY    37  36  93 E9        29.88F
CAMBRIDGE      CLOUDY    45  36  70 E8        29.83F
RUSH CITY      CLOUDY    41  37  87 E10G16    29.88F
MOOSE LAKE     CLOUDY    37  36  93 E6        29.89F
HINCKLEY       CLOUDY    39  37  93 E7        29.89F
CLOQUET        CLOUDY    36  36 100 E9        29.93F FOG
MCGREGOR       CLOUDY    37  36  93 E12G17    29.89F
$$
MNZ071>073-080-081-089-090-097-098-241100-
   Southwest Minnesota

CITY           SKY/WX    TMP DP  RH WIND       PRES   REMARKS
MONTEVIDEO     DRIZZLE   41  41 100 SE13      29.73F
GRANITE FALLS  CLOUDY    42  39  88 E12       29.72F
CANBY          DRIZZLE   41  40  96 E3        29.73R
MARSHALL       CLOUDY    43  37  81 SE13      29.69F
REDWOOD FALLS  LGT RAIN  43  41  93 SE15G21   29.73F FOG
OLIVIA         CLOUDY    43  37  81 SE15      29.73F
PIPESTONE      LGT RAIN  43  43 100 SE8       29.66S
WINDOM         RAIN      43  43 100 E7        29.73S
WORTHINGTON    CLOUDY    45  37  76 SE13      29.71F
JACKSON        CLOUDY    43  41  93 CALM      29.73R FOG
TRACY          RAIN      42  41  95 SE12      29.71R
SLAYTON        LGT RAIN  42  41  99 E12       29.69S
$$
MNZ065>067-074>077-082>085-091>093-241100-
   South Central Minnesota

CITY           SKY/WX    TMP DP  RH WIND       PRES   REMARKS
MANKATO        CLOUDY    43  39  87 SE18G24   29.75F
NEW ULM        LGT RAIN  43  43 100 E7        29.76R
ST JAMES       RAIN      45  41  87 E8        29.75R
FAIRMONT       CLOUDY    45  39  81 SE18G24   29.72S
GLENCOE        LGT RAIN  42  38  86 E12       29.78F
FARIBAULT      LGT RAIN  45  37  76 E15G21    29.80F
OWATONNA       CLOUDY    43  39  87 SE20G25   29.78F
WASECA         CLOUDY    41  36  81 E22       29.77F
ALBERT LEA     TSTM      43  43 100 SE20G32   29.77F
$$
MNZ078>079-086>088-094>096-241100-
   Southeast Minnesota

CITY           SKY/WX    TMP DP  RH WIND       PRES   REMARKS
ROCHESTER      LGT RAIN  40  36  86 SE24      29.81F FOG
RED WING       DRIZZLE   43  39  87 SE13      29.86S
STANTON        RAIN      42  38  86 SE8       29.81F
DODGE CENTER   LGT RAIN  43  41  93 SE17      29.80F
WINONA         RAIN      39  36  87 SE10      29.90F
AUSTIN         TSTM      41  39  93 SE15      29.80F
PRESTON        RAIN      40  37  90 SE12      29.85F
$$
ABBREVIATIONS USED IN REMARKS
   TC - TEMPERATURES IN CELSIUS
  WCI - WIND CHILL INDEX
   HX - HEAT INDEX
  VSB - VISIBILITY
$$


USA.gov is the U.S. government's official web portal to all federal, state and local government web resources and services.